Regional Weather Roundup
Issued by NWS

Home | Current Version | Previous Version | Graphics & Text | Print | Product List | Glossary On
Versions: 1 2 3 4 5 6 7 8 9 10 11 12 13 14 15 16 17 18 19 20 21 22 23 24 25 26 27 28 29 30 31 32 33 34 35 36 37 38 39 40 41 42 43 44 45 46 47 48 49 50
000
ASUS43 KMKX 281000
RWRWI

WISCONSIN REGIONAL WEATHER ROUNDUP
NATIONAL WEATHER SERVICE MILWAUKEE/SULLIVAN WI
500 AM CDT FRI AUG 28 2015

NOTE: "FAIR" INDICATES FEW OR NO CLOUDS BELOW 12,000 FEET WITH NO
SIGNIFICANT WEATHER AND/OR OBSTRUCTIONS TO VISIBILITY.

WIZ001-002-006>008-014>016-023>028-281100-
NORTHWEST WISCONSIN

CITY           SKY/WX    TMP DP  RH WIND       PRES   REMARKS
SUPERIOR ARPT  MOCLDY    50  49  97 CALM      29.97F
ASHLAND        CLOUDY    63  60  90 S9        29.99S
HAYWARD        PTCLDY    61  57  87 S8        30.02S
SIREN          CLEAR     62  58  86 SW6       30.00S
CUMBERLAND     MOCLDY    55  54  94 S5        30.02S
RICE LAKE      MOCLDY    58  56  92 CALM      30.04R
CHETEK         MOCLDY   N/A N/A N/A SE5       30.03S
LADYSMITH      PTCLDY    60  58  94 SE3       30.06S
EAU CLAIRE     CLOUDY    62  58  86 S6        30.03S
MENOMONIE      CLOUDY    60  58  94 E3        30.03S
NEW RICHMOND   MOCLDY    60  59  95 SE3       30.01S
OSCEOLA        MOCLDY    60  60 100 SE5       30.03S
$$

WIZ003>005-009-010-017-018-281100-
NORTH CENTRAL WISCONSIN

CITY           SKY/WX    TMP DP  RH WIND       PRES   REMARKS
MANITOWISH WTR MOCLDY    59  58  98 S3        30.05R
ARBOR VITAE    MOCLDY    60  58  91 SW5       30.06S
WOODRUFF       MOCLDY    60  58  91 SW5       30.06S
RHINELANDER    CLOUDY    60  57  89 SW8       30.08R
EAGLE RIVER    MOCLDY    58  57  97 CALM      30.06S
LAND O LAKES   MOCLDY    57  56  96 CALM      30.07R
PHILLIPS       PTCLDY    58  57  96 S6        30.05S
TOMAHAWK       PTCLDY    57  55  95 CALM      30.08R
MEDFORD        MOCLDY    59  57  94 S6        30.07F
MERRILL        CLOUDY    59  58  99 SW5       30.09R
$$

WIZ029-030-035-036-043>047-281100-
CENTRAL WISCONSIN

CITY           SKY/WX    TMP DP  RH WIND       PRES   REMARKS
WAUSAU         CLOUDY    61  58  90 SW6       30.08R
MOSINEE        MOCLDY    57  57 100 S8        30.10R
MARSHFIELD     CLOUDY    58  54  86 S6        30.08S
STEVENS POINT  MOCLDY    57  55  95 SW7       30.10R
WAUPACA        MOCLDY    59  58  97 S3        30.10R
WAUTOMA        NOT AVBL
WISC RAPIDS    LGT RAIN  59  55  87 S3        30.11R
CAMP DOUGLAS   NOT AVBL
$$

WIZ011>013-019>022-031-037>040-048>050-281100-
NORTHEAST WISCONSIN

CITY           SKY/WX    TMP DP  RH WIND       PRES   REMARKS
ANTIGO         PTCLDY    55  55  98 SW7       30.09R
SHAWANO        PTCLDY    60  57  92 CALM      30.09S
OCONTO         MOCLDY    55  55 100 CALM      30.08S
STURGEON BAY   PTCLDY    57  52  82 S7        30.11F
GREEN BAY      PTCLDY    57  54  89 S6        30.10R
MANITOWOC      NOT AVBL
APPLETON       MOCLDY    57  54  88 S6        30.09R
CLINTONVILLE   MOCLDY    55  55 100 CALM      30.09R
OSHKOSH        PTCLDY    57  52  83 S6        30.10R
$$

WIZ032>034-041-042-053>061-281100-
SOUTHWEST WISCONSIN

CITY           SKY/WX    TMP DP  RH WIND       PRES   REMARKS
LA CROSSE      CLOUDY    65  60  84 S8        30.05F
SPARTA         CLOUDY    58  56  93 CALM      30.09S
VIROQUA        CLOUDY    60  60 100 S5        30.10S
BOSCOBEL       CLOUDY    59  57  93 CALM      30.09S
PRAIRIE DU CHI CLOUDY    63  59  87 E3        30.08F
PLATTEVILLE    CLOUDY    61  59  94 CALM      30.11S
$$

WIZ056-057-062-063-064-067-068-281100-
SOUTH CENTRAL WISCONSIN

CITY           SKY/WX    TMP DP  RH WIND       PRES   REMARKS
REEDSBURG      MOCLDY    58  56  92 CALM      30.10R
BARABOO/DELLS  MOCLDY    59  55  85 SW5       30.10R
LONE ROCK      NOT AVBL
MINERAL POINT  CLOUDY    61  59  94 S5        30.11R
MADISON        MOCLDY    60  55  83 S5        30.11R
MIDDLETON      MOCLDY    60  56  85 CALM      30.11S
WATERTOWN      CLEAR     53  53 100 CALM      30.11S
MONROE         CLOUDY    59  55  88 S5        30.11R
JANESVILLE     CLOUDY    59  55  88 CALM      30.10S FOG
$$

WIZ051-052-058>065-066-070>072-281100-
SOUTHEAST WISCONSIN

CITY           SKY/WX    TMP DP  RH WIND       PRES   REMARKS
MILWAUKEE      PTCLDY    57  53  86 CALM      30.12S
WAUKESHA       PTCLDY    55  54  94 S3        30.13S
MILWAUKEE/TIMM PTCLDY    55  52  88 S3        30.12S
RACINE         CLEAR     60  56  86 S5        30.13S
BURLINGTON     FOG       48  48  98 CALM      30.11F VSB 1/2
KENOSHA        CLEAR     55  54  96 S3        30.11F FOG
FOND DU LAC    PTCLDY    55  52  89 SW3       30.11R
SHEBOYGAN      PTCLDY    52  51  97 CALM      30.11R
WEST BEND      PTCLDY    54  52  94 CALM      30.11S
JUNEAU         FAIR      54  51  90 SE5       30.12S
$$

LSZ147-162-281100-
LAKE SUPERIOR

STATION/POSITION TIME  TEMP    WIND        PRES    WAVE
                       AIR SEA DIR/SP/G            HT/PER
                 (UTC) (F)     (DEG/KT/KT) (MB)    (FT/S)
W MID LAKE BUOY  0850   58 55  210/  4/  6 1015.3R   0
DEVILS ISLAND    0900   61     230/  4/  5 1015.4R
PORT WING        0940   56      CALM  /  1 1015.2F
SAXON HARBOR     0900   67     200/  4/  9 1015.2
$$

LMZ867-665-643>646-281100-
LAKE MICHIGAN

STATION/POSITION TIME  TEMP    WIND        PRES    WAVE
                       AIR SEA DIR/SP/G            HT/PER
                 (UTC) (F)     (DEG/KT/KT) (MB)    (FT/S)
CHAMBERS ISLAND  0900   60     180/  3/  8 1018.6R
S GREEN BAY BUOY 0900   63     190/ 12/ 14 1020.0F
N MID LAKE BUOY  0850   63 64  210/ 17/ 21 1018.4R   3/ 4
NORTHPORT PIER   0900   60     190/  4/ 11 1018.6R
SISTER BAY       0849   61     190/  7/  9   N/A
ALGOMA LAKESHORE 0914          200/  3/  4   N/A
KEWAUNEE LAKESHO 0900   50     160/  4/  5 1018.3R
SHEBOYGAN LAKESH 0900   56     190/  7/  8 1019.8F
PORT WASHINGTON  0900   50     140/  1/  2 1020.3S
ATWATER BUOY     0900   51 47  150/  2/  4 1020.9F
MILWAUKEE LAKESH 0900   56      30/  2/  2   N/A
S MID LAKE BUOY  0850   66 67  170/ 10/ 12 1020.0F   1/ 3
KENOSHA   LAKESH 0900   61     180/  7/  8 1019.3F
$$

TC  - TEMPERATURE IN CELSIUS
VSB - VISIBILITY IN STATUTE MILES
WCI - WIND CHILL INDEX
HX  - HEAT INDEX




USA.gov is the U.S. government's official web portal to all federal, state and local government web resources and services.